User: anonymous   Login
Location: Unspecified
(0.0000°N, 0.0000°E)
Time: 02:04:28
(UTC+02:00)
Language:

Milstar 3 - Orbit

View from above orbital plane
View from above orbital plane
View from above satellite
View from above satellite

Ground track
Ground track

The orbit data is extracted from the following two-line orbital elements,

1 25724U 99023A   16129.15646567 0.00000000  00000-0  00000-0 0    05
2 25724  28.2236 175.3639 2134299 179.2407 180.7588  9.37454073    08
Epoch (UTC): 08 May 2016 03:45:18
Eccentricity: 0.2134299
inclination: 28.2236°
perigee height: 1095 km
apogee height: 5150 km
right ascension of ascending node: 175.3639°
argument of perigee: 179.2407°
revolutions per day: 9.37454073
mean anomaly at epoch: 180.7588°
orbit number at epoch: 0

The dashed part of the orbit path shows where the satellite is in the earth's shadow,  

DLR